EW9372 Weather Reports


Display with metric or nautical units.
time (UTC)temp
F
wind
direction
speed
MPH
gust
MPH
rain 1hr
in
rain 24hr
in
rain mn
in
humidity
%
barometer
mb
20260507225119 85 236 0.0 4.0 0.00 0.00 0.00 46 1014.7
20260507224618 85 234 0.0 4.0 0.00 0.00 0.00 47 1014.7
20260507224115 84 288 1.0 0.0 0.00 0.00 0.00 46 1014.7
20260507223047 84 25 1.0 2.0 0.00 0.00 0.00 47 1014.9
20260507221255 84 225 1.0 4.0 0.00 0.00 0.00 48 1015.3
20260507220751 83 293 1.0 1.0 0.00 0.00 0.00 49 1015.4
20260507215920 83 231 2.0 7.0 0.00 0.00 0.00 49 1015.6
20260507215650 83 248 0.0 4.0 0.00 0.00 0.00 48 1015.6
20260507214423 82 49 2.0 5.0 0.00 0.00 0.00 49 1015.5
20260507214417 83 11 1.0 5.0 0.00 0.00 0.00 50 1015.7
20260507214141 82 66 2.0 6.0 0.00 0.00 0.00 50 1015.6
20260507212912 82 35 2.0 6.0 0.00 0.00 0.00 50 1015.7
20260507212409 81 76 2.0 7.0 0.00 0.00 0.00 50 1015.8
20260507211907 81 36 1.0 7.0 0.00 0.00 0.00 51 1015.9
20260507211358 81 60 1.0 6.0 0.00 0.00 0.00 51 1016.1
20260507210901 80 28 2.0 6.0 0.00 0.00 0.00 51 1016.1
20260507210356 82 349 2.0 5.0 0.00 0.00 0.00 51 1016.1
20260507205900 82 227 1.0 5.0 0.00 0.00 0.00 49 1016.0
20260507205356 82 64 1.0 5.0 0.00 0.00 0.00 51 1016.0
20260507204855 80 57 2.0 5.0 0.00 0.00 0.00 51 1016.1
20260507204351 80 38 3.0 1.0 0.00 0.00 0.00 52 1016.2
20260507203216 80 10 1.0 5.0 0.00 0.00 0.00 52 1016.4
20260507202713 81 257 1.0 5.0 0.00 0.00 0.00 51 1016.5
20260507202658 81 235 1.0 5.0 0.00 0.00 0.00 52 1016.5
20260507201650 79 286 2.0 7.0 0.00 0.00 0.00 54 1016.4
20260507201154 78 244 1.0 5.0 0.00 0.00 0.00 55 1016.5
20260507201149 79 34 1.0 7.0 0.00 0.00 0.00 54 1016.5
20260507200155 79 58 2.0 2.0 0.00 0.00 0.00 53 1016.7
20260507200149 79 331 2.0 5.0 0.00 0.00 0.00 54 1016.5
20260507194300 78 225 1.0 4.0 0.00 0.00 0.00 54 1016.8
20260507193801 78 313 1.0 6.0 0.00 0.00 0.00 54 1016.9
20260507193301 78 29 1.0 6.0 0.00 0.00 0.00 55 1017.0
20260507192757 77 25 1.0 6.0 0.00 0.00 0.00 55 1017.0
20260507192259 78 225 2.0 6.0 0.00 0.00 0.00 54 1017.1
20260507191757 78 242 2.0 6.0 0.00 0.00 0.00 55 1017.1
20260507191258 78 271 1.0 5.0 0.00 0.00 0.00 54 1017.1
20260507190758 77 249 2.0 6.0 0.00 0.00 0.00 55 1017.0
20260507190304 76 348 2.0 6.0 0.00 0.00 0.00 56 1017.1
20260507190258 77 257 2.0 6.0 0.00 0.00 0.00 56 1017.2
20260507185754 77 39 2.0 5.0 0.00 0.00 0.00 56 1017.1
20260507184752 77 325 3.0 6.0 0.00 0.00 0.00 56 1017.2
20260507184259 76 234 2.0 6.0 0.00 0.00 0.00 57 1017.2
20260507183753 76 44 2.0 6.0 0.00 0.00 0.00 57 1017.2
20260507183249 76 227 3.0 0.0 0.00 0.00 0.00 56 1017.2
20260507182418 76 234 1.0 7.0 0.00 0.00 0.00 58 1017.4
20260507181418 75 243 1.0 7.0 0.00 0.00 0.00 58 1017.3
20260507180911 74 297 1.0 5.0 0.00 0.00 0.00 60 1017.1
20260507180412 74 30 2.0 5.0 0.00 0.00 0.00 61 1017.2
20260507175907 74 23 2.0 5.0 0.00 0.00 0.00 58 1017.3
20260507175405 74 242 2.0 5.0 0.00 0.00 0.00 61 1017.3
20260507174905 73 233 1.0 2.0 0.00 0.00 0.00 61 1017.3
20260507173249 74 36 2.0 5.0 0.00 0.00 0.00 60 1017.3
20260507172750 73 259 3.0 0.0 0.00 0.00 0.00 60 1017.3
20260507171446 72 21 1.0 5.0 0.00 0.00 0.00 63 1017.3
20260507170949 71 247 0.0 0.0 0.00 0.00 0.00 64 1017.2
20260507170945 72 241 0.0 5.0 0.00 0.00 0.00 64 1017.3
20260507165943 71 246 0.0 0.0 0.00 0.00 0.00 64 1017.2
20260507165441 71 233 0.0 0.0 0.00 0.00 0.00 63 1017.3
20260507164939 71 234 0.0 0.0 0.00 0.00 0.00 65 1017.3
20260507164935 71 233 0.0 0.0 0.00 0.00 0.00 63 1017.3
20260507163315 70 229 0.0 0.0 0.00 0.00 0.00 68 1017.3
20260507162800 69 229 0.0 0.0 0.00 0.00 0.00 67 1017.3
20260507162301 69 229 0.0 0.0 0.00 0.00 0.00 67 1017.4
20260507161757 69 219 0.0 0.0 0.00 0.00 0.00 68 1017.3
20260507161250 68 194 0.0 0.0 0.00 0.00 0.00 69 1017.3
20260507160722 68 191 0.0 0.0 0.00 0.00 0.00 70 1017.5
20260507160222 67 137 0.0 1.0 0.00 0.00 0.00 70 1017.5
20260507155726 67 227 0.0 2.0 0.00 0.00 0.00 70 1017.4
20260507155222 66 229 0.0 3.0 0.00 0.00 0.00 71 1017.5
20260507154724 66 230 1.0 4.0 0.00 0.00 0.00 70 1017.4
20260507154219 66 202 1.0 4.0 0.00 0.00 0.00 71 1017.4
20260507153719 66 197 1.0 3.0 0.00 0.00 0.00 71 1017.4
20260507153215 65 229 1.0 1.0 0.00 0.00 0.00 72 1017.4
20260507151949 65 222 1.0 3.0 0.00 0.00 0.00 73 1017.4
20260507150812 64 188 0.0 4.0 0.00 0.00 0.00 73 1017.3
20260507150309 65 204 1.0 4.0 0.00 0.00 0.00 74 1017.3
20260507145810 64 229 1.0 4.0 0.00 0.00 0.00 74 1017.4
20260507145309 64 229 1.0 4.0 0.00 0.00 0.00 75 1017.4
20260507144809 64 206 1.0 3.0 0.00 0.00 0.00 76 1017.4
20260507144804 64 171 0.0 2.0 0.00 0.00 0.00 78 1017.3
20260507143758 63 186 0.0 2.0 0.00 0.00 0.00 79 1017.3
20260507142206 62 186 0.0 2.0 0.00 0.00 0.00 83 1017.0
20260507141632 61 184 0.0 2.0 0.00 0.00 0.00 85 1017.1
20260507141132 60 204 0.0 2.0 0.00 0.00 0.00 86 1017.0
20260507140634 60 155 0.0 2.0 0.00 0.00 0.00 86 1016.9
20260507140620 60 178 0.0 2.0 0.00 0.00 0.00 87 1016.6
20260507135618 59 178 0.0 4.0 0.00 0.00 0.00 87 1016.6
20260507135120 59 175 0.0 4.0 0.00 0.00 0.00 88 1016.5
20260507134607 58 171 0.0 0.0 0.00 0.00 0.00 89 1016.6
20260507133424 58 156 0.0 2.0 0.00 0.00 0.00 89 1016.4
20260507132918 57 166 0.0 2.0 0.00 0.00 0.00 89 1016.4
20260507132420 57 157 0.0 2.0 0.00 0.00 0.00 89 1016.4
20260507131919 57 169 0.0 2.0 0.00 0.00 0.00 89 1016.4
20260507131421 57 153 0.0 2.0 0.00 0.00 0.00 89 1016.4
20260507130919 57 136 0.0 2.0 0.00 0.00 0.00 88 1016.3
20260507130415 57 152 0.0 2.0 0.00 0.00 0.00 88 1016.3
20260507125907 57 149 0.0 2.0 0.00 0.00 0.00 88 1016.4
20260507125407 57 151 0.0 0.0 0.00 0.00 0.00 88 1016.4
20260507124250 57 161 0.0 2.0 0.00 0.00 0.00 88 1016.2
20260507124242 57 143 1.0 2.0 0.00 0.00 0.00 88 1016.2
20260507123729 57 171 1.0 0.0 0.00 0.00 0.00 88 1016.2
20260507122342 57 151 0.0 2.0 0.00 0.00 0.00 87 1016.2
20260507121344 57 175 0.0 3.0 0.00 0.00 0.00 87 1016.2
20260507120835 57 180 0.0 3.0 0.00 0.00 0.00 87 1016.2
20260507120335 57 183 1.0 3.0 0.00 0.00 0.00 87 1016.2
20260507120330 57 200 1.0 3.0 0.00 0.00 0.00 87 1016.2
20260507115336 57 189 1.0 5.0 0.00 0.00 0.00 87 1016.2
20260507114827 57 168 1.0 5.0 0.00 0.00 0.00 88 1016.2
20260507114328 57 157 0.0 3.0 0.00 0.00 0.00 88 1016.2
20260507113828 57 184 0.0 3.0 0.00 0.00 0.00 88 1016.2
20260507113336 58 164 1.0 3.0 0.00 0.00 0.00 87 1016.3
20260507113327 58 185 1.0 3.0 0.00 0.00 0.00 87 1016.3
20260507112326 58 213 0.0 3.0 0.00 0.00 0.00 87 1016.3
20260507111826 58 186 1.0 3.0 0.00 0.00 0.00 86 1016.4
20260507111329 58 185 0.0 2.0 0.00 0.00 0.00 85 1016.4
20260507111326 58 180 0.0 2.0 0.00 0.00 0.00 86 1016.3
20260507110318 58 197 0.0 2.0 0.00 0.00 0.00 85 1016.3
20260507105815 58 202 0.0 0.0 0.00 0.00 0.00 85 1016.2
20260507105328 58 190 0.0 0.0 0.00 0.00 0.00 84 1016.0
20260507102846 58 162 1.0 3.0 0.00 0.00 0.00 84 1016.2
20260507102345 58 157 1.0 3.0 0.00 0.00 0.00 84 1016.2
20260507101845 58 180 1.0 2.0 0.00 0.00 0.00 84 1016.2
20260507101339 58 196 1.0 0.0 0.00 0.00 0.00 84 1016.2
20260507100229 58 206 1.0 3.0 0.00 0.00 0.00 84 1016.1
20260507095713 58 185 0.0 3.0 0.00 0.00 0.00 84 1016.2
20260507095215 58 205 0.0 3.0 0.00 0.00 0.00 84 1016.2
20260507095210 58 165 1.0 3.0 0.00 0.00 0.00 85 1016.2
20260507094153 58 207 1.0 3.0 0.00 0.00 0.00 85 1016.3
20260507094149 58 185 1.0 3.0 0.00 0.00 0.00 85 1016.2
20260507093149 59 205 0.0 3.0 0.00 0.00 0.00 86 1016.3
20260507092638 59 205 0.0 3.0 0.00 0.00 0.00 86 1016.2
20260507092138 59 200 0.0 2.0 0.00 0.00 0.00 86 1016.3
20260507092127 60 197 0.0 2.0 0.00 0.00 0.00 86 1016.3
20260507091110 60 185 0.0 0.0 0.00 0.00 0.00 86 1016.3
20260507091106 60 188 0.0 2.0 0.00 0.00 0.00 86 1016.3
20260507085054 60 171 0.0 0.0 0.00 0.00 0.00 86 1016.4
20260507085040 60 171 0.0 0.0 0.00 0.00 0.00 86 1016.5
20260507084017 60 186 0.0 0.0 0.00 0.00 0.00 86 1016.5
20260507083514 60 186 0.0 0.0 0.00 0.00 0.00 86 1016.5
20260507082955 60 186 0.0 0.0 0.00 0.00 0.00 86 1016.6
20260507082456 60 188 0.0 0.0 0.00 0.00 0.00 85 1016.6
20260507081955 60 188 0.0 0.0 0.00 0.00 0.00 85 1016.6
20260507081446 60 181 0.0 1.0 0.00 0.00 0.00 85 1016.6
20260507080932 61 182 0.0 1.0 0.00 0.00 0.00 85 1016.6
20260507080419 61 177 0.0 1.0 0.00 0.00 0.00 85 1016.5
20260507075857 61 173 0.0 1.0 0.00 0.00 0.00 85 1016.6
20260507075334 61 165 0.0 1.0 0.00 0.00 0.00 84 1016.6
20260507074820 61 156 0.0 0.0 0.00 0.00 0.00 84 1016.6
20260507074317 61 155 0.0 0.0 0.00 0.00 0.00 84 1016.6
20260507073147 62 160 0.0 0.0 0.00 0.00 0.00 83 1016.5
20260507073130 62 146 0.0 0.0 0.00 0.00 0.00 83 1016.7
20260507072840 62 161 0.0 0.0 0.00 0.00 0.00 83 1016.6
20260507070540 62 178 0.0 2.0 0.00 0.00 0.00 81 1016.7
20260507070027 62 179 0.0 2.0 0.00 0.00 0.00 81 1016.6
20260507065522 62 177 0.0 1.0 0.00 0.00 0.00 81 1016.6
20260507065011 62 181 0.0 1.0 0.00 0.00 0.00 82 1016.5
20260507064500 63 170 0.0 1.0 0.00 0.00 0.00 81 1016.5
20260507063956 63 173 0.0 1.0 0.00 0.00 0.00 81 1016.6
20260507063456 63 171 0.0 0.0 0.00 0.00 0.00 81 1016.5
20260507062921 63 178 0.0 0.0 0.00 0.00 0.00 80 1016.6
20260507062408 63 180 0.0 0.0 0.00 0.00 0.00 80 1016.6
20260507061909 63 185 0.0 0.0 0.00 0.00 0.00 80 1016.6
20260507060442 64 190 0.0 0.0 0.00 0.00 0.00 79 1016.6
20260507055916 64 185 0.0 0.0 0.00 0.00 0.00 79 1016.6
20260507055547 64 237 0.0 0.0 0.00 0.00 0.00 78 1016.6
20260507055413 64 185 0.0 0.0 0.00 0.00 0.00 79 1016.6
20260507054856 64 236 0.0 0.0 0.00 0.00 0.00 78 1016.6
20260507054820 64 236 0.0 0.0 0.00 0.00 0.00 78 1016.6
20260507053319 65 236 0.0 0.0 0.00 0.00 0.00 77 1016.5
20260507052822 65 236 0.0 1.0 0.00 0.00 0.00 77 1016.6
20260507052750 65 236 0.0 3.0 0.00 0.00 0.00 77 1016.5
20260507052505 65 237 1.0 4.0 0.00 0.00 0.00 76 1016.4
20260507051249 65 226 0.0 3.0 0.00 0.00 0.00 75 1016.4
20260507051245 65 235 0.0 4.0 0.00 0.00 0.00 76 1016.4
20260507050241 66 227 1.0 5.0 0.00 0.00 0.00 75 1016.5
20260507045745 66 186 1.0 5.0 0.00 0.00 0.00 74 1016.5
20260507045728 66 156 0.0 0.0 0.00 0.00 0.00 74 1016.4
20260507044725 67 157 0.0 0.0 0.00 0.00 0.00 74 1016.3
20260507044224 67 166 0.0 0.0 0.00 0.00 0.00 72 1016.3
20260507044220 67 165 0.0 0.0 0.00 0.00 0.00 74 1016.3
20260507043942 67 153 0.0 0.0 0.00 0.00 0.00 71 1016.3
20260507042716 67 154 0.0 0.0 0.00 0.00 0.00 70 1016.2
20260507042158 67 154 0.0 0.0 0.00 0.00 0.00 69 1016.2
20260507041619 68 155 0.0 0.0 0.00 0.00 0.00 69 1016.2
20260507041100 68 150 0.0 0.0 0.00 0.00 0.00 68 1016.2
20260507040230 68 151 0.0 0.0 0.00 0.00 0.00 68 1016.2
20260507035220 68 132 0.0 0.0 0.00 0.00 0.00 68 1016.1
20260507034709 68 126 0.0 0.0 0.00 0.00 0.00 68 1016.1
20260507034657 69 134 0.0 0.0 0.00 0.00 0.00 68 1016.1
20260507033656 69 131 0.0 0.0 0.00 0.00 0.00 68 1016.1
20260507033139 69 117 0.0 0.0 0.00 0.00 0.00 68 1016.0
20260507033134 69 56 0.0 0.0 0.00 0.00 0.00 67 1015.9
20260507032850 69 72 0.0 0.0 0.00 0.00 0.00 68 1016.0
20260507031620 69 56 0.0 0.0 0.00 0.00 0.00 66 1015.9
20260507031120 70 56 0.0 0.0 0.00 0.00 0.00 66 1015.9
20260507030605 70 56 0.0 0.0 0.00 0.00 0.00 66 1015.9
20260507030050 70 56 0.0 0.0 0.00 0.00 0.00 65 1015.8
20260507025549 70 56 0.0 0.0 0.00 0.00 0.00 64 1015.7
20260507023859 71 56 0.0 0.0 0.00 0.00 0.00 62 1015.8
20260507023359 71 56 0.0 0.0 0.00 0.00 0.00 63 1015.8
20260507022845 71 55 0.0 0.0 0.00 0.00 0.00 62 1015.8
20260507022343 72 56 0.0 0.0 0.00 0.00 0.00 61 1015.7
20260507020919 73 55 0.0 2.0 0.00 0.00 0.00 60 1015.8
20260507020421 73 56 0.0 2.0 0.00 0.00 0.00 59 1015.8
20260507015920 73 56 0.0 3.0 0.00 0.00 0.00 59 1015.9
20260507015413 73 56 0.0 3.0 0.00 0.00 0.00 59 1015.9
20260507014904 73 28 0.0 1.0 0.00 0.00 0.00 59 1015.7
20260507014859 73 26 0.0 2.0 0.00 0.00 0.00 58 1015.8
20260507013844 73 26 0.0 2.0 0.00 0.00 0.00 58 1015.9
20260507013342 73 26 1.0 3.0 0.00 0.00 0.00 58 1015.9
20260507012834 73 27 0.0 3.0 0.00 0.00 0.00 58 1015.9
20260507012321 73 69 0.0 0.0 0.00 0.00 0.00 59 1016.0
20260507011807 73 69 0.0 1.0 0.00 0.00 0.00 58 1015.9
20260507011802 73 69 0.0 1.0 0.00 0.00 0.00 57 1015.9
20260507010804 73 69 0.0 1.0 0.00 0.00 0.00 58 1016.0
20260507010257 73 69 1.0 1.0 0.00 0.00 0.00 59 1016.0
20260507004753 73 74 0.0 0.0 0.00 0.00 0.00 58 1016.0
20260507003505 74 76 2.0 5.0 0.00 0.00 0.00 58 1016.1
20260507003007 74 61 2.0 2.0 0.00 0.00 0.00 58 1016.2
20260507002128 75 57 2.0 7.0 0.00 0.00 0.00 57 1016.4
20260507001112 75 74 1.0 5.0 0.00 0.00 0.00 57 1016.3
20260507000615 74 36 0.0 5.0 0.00 0.00 0.00 58 1016.3
20260507000114 74 97 1.0 5.0 0.00 0.00 0.00 56 1016.4
20260506235612 75 46 2.0 5.0 0.00 0.00 0.00 56 1016.4
20260506235108 75 30 1.0 5.0 0.00 0.00 0.00 56 1016.4
20260506234604 74 42 1.0 5.0 0.00 0.00 0.00 57 1016.4
20260506234550 74 163 1.0 5.0 0.00 0.00 0.00 56 1016.3
20260506233530 74 67 1.0 6.0 0.00 0.00 0.00 56 1016.3
20260506233026 74 43 2.0 6.0 0.00 0.00 0.00 57 1016.3
20260506232513 74 13 1.0 6.0 0.00 0.00 0.00 58 1016.3
20260506232010 73 115 2.0 7.0 0.00 0.00 0.00 57 1016.4
20260506231510 73 18 3.0 9.0 0.00 0.00 0.00 58 1016.6
20260506231001 73 70 3.0 9.0 0.00 0.00 0.00 57 1016.6
20260506230505 74 54 2.0 6.0 0.00 0.00 0.00 56 1016.7
20260506225953 74 51 2.0 6.0 0.00 0.00 0.00 57 1016.7
20260506225456 74 5 2.0 5.0 0.00 0.00 0.00 57 1016.8